Flag for Brazil Weather past 2 weeks in Santa María, Rio Grande do Sul, Brazil

57 °F

Partly sunny.

Feels Like: 57 °F
Forecast: 46 / 74 °F
Wind: 2 mph from South

Location: Porto Alegre Aero-Porto

Current Time: Oct 13, 2015 at 5:58:25 AM

Latest Report: Oct 13, 2015 at 5:00 AM

Visibility: N/A

Pressure: 30.07 "Hg

Humidity: 94%

Dew point: 55 °F

Location of Santa MaríaLocation

Historic Weather in Santa María — Graph


Santa María temperature yesterday

Maximum temperature yesterday: 68 °F (at 2:00 PM)
Minimum temperature yesterday: 61 °F (at 3:00 AM)
Average temperature yesterday: 64 °F

Past Weeks' High & Low Weather Summary

High84 °F (Oct 6, 3:00 PM)100% (Sep 29, 6:00 AM)30.18 "Hg (Sep 29, 6:00 AM)
Low32 °F (Oct 8, 4:00 AM)29% (Sep 28, 4:00 PM)29.68 "Hg (Oct 8, 3:00 AM)
Average64 °F80%29.96 "Hg
* Reported Sep 28 4:00 AM — Oct 13 4:00 AM, Santa María, Weather by CustomWeather, © 2015

Note: Actual official high and low records may vary slightly from our data, if they occured in-between our weather recording intervals... More about our weather records


Santa María weather history for previous 24 hours

Time TempWeatherWind HumidityBarometerVisibility
4:00 AM
Tue, Oct 13
57 °FPassing clouds.No wind94%30.04 "HgN/A
3:00 AM59 °FPassing clouds.3 mph94%30.04 "HgN/A
2:00 AM59 °FPassing clouds.2 mph88%30.04 "HgN/A
1:00 AM59 °FPassing clouds.3 mph88%30.07 "HgN/A
12:00 AM61 °FPassing clouds.No wind83%30.07 "HgN/A
11:00 PM
Mon, Oct 12
61 °FPassing clouds.7 mph83%30.07 "HgN/A
10:00 PM63 °FPartly cloudy.9 mph83%30.04 "HgN/A
9:00 PM63 °FPassing clouds.5 mph88%30.04 "HgN/A
8:00 PM64 °FPassing clouds.5 mph78%30.01 "HgN/A
7:00 PM66 °FPassing clouds.8 mph73%29.98 "HgN/A
6:00 PM68 °FPassing clouds.6 mph73%29.98 "HgN/A
5:00 PM68 °FPartly sunny.7 mph73%29.95 "HgN/A
4:00 PM68 °FScattered showers. Partly sunny.15 mph69%29.95 "HgN/A
3:00 PM64 °FScattered showers. Partly sunny.12 mph83%29.95 "HgN/A
2:00 PM68 °FScattered showers. Broken clouds.16 mph73%29.95 "HgN/A
1:00 PM66 °FScattered showers. Mostly cloudy.13 mph78%29.98 "HgN/A
12:00 PM64 °FScattered showers. Mostly cloudy.14 mph83%29.98 "HgN/A
11:00 AM66 °FPartly sunny.16 mph78%30.01 "HgN/A
10:00 AM63 °FLow clouds.15 mph88%30.01 "Hg5 mi
9:00 AM61 °FDrizzle. Fog.15 mph94%29.98 "Hg3 mi
8:00 AM61 °FOvercast.12 mph94%29.98 "HgN/A
7:00 AM61 °FOvercast.12 mph94%29.95 "HgN/A
6:00 AM61 °FOvercast.13 mph94%29.95 "HgN/A
5:00 AM61 °FLow clouds.13 mph94%29.92 "Hg6 mi
Weather by CustomWeather, © 2015

See weather overviewHow to use our weather pages